Regional Weather Roundup
Issued by NWS Goodland, KS

Home | Current Version | Previous Version | Graphics & Text | Print | Product List | Glossary On
Versions: 1 2 3 4 5 6 7 8 9 10 11 12 13 14 15 16 17 18 19 20 21 22 23 24 25 26 27 28 29 30 31 32 33 34 35 36 37 38 39 40 41 42 43 44 45 46 47 48 49 50
000
ASUS43 KGLD 231008
RWRGLD

GOODLAND FORECAST AREA HOURLY WEATHER ROUNDUP
NATIONAL WEATHER SERVICE GOODLAND KS
400 AM MDT THU OCT 23 2014

...OFFICIAL OBSERVATIONS...

CITY           SKY/WX    TMP DP  RH WIND       PRES   REMARKS
GOODLAND KS    CLEAR     42  40  92 W5        30.12R
HILL CITY KS   FOG       56  55  97 NW6       30.07S VSB 1/4
IMPERIAL NEB   CLEAR     39  32  76 W3        30.11R
MCCOOK NEB     FOG       45  45 100 SW3       30.10R VSB 1/4
AKRON CO       CLEAR     46  38  73 SW9       30.12S
BURLINGTON CO  MOCLDY    45  41  86 W5        30.12S
LIMON CO       CLEAR     39  38  96 NE5       30.17R
$$

...UNOFFICIAL OBSERVATIONS...

CITY           SKY/WX    TMP DP  RH WIND       PRES   REMARKS
GOVE KS          N/A     60  32  34 MISG        N/A
SHARON SPRINGS   N/A     48  46  93 CALM        N/A
TRENTON NEB      N/A     41  32  70 N7          N/A
KIT CARSON CO    N/A     44  39  84 CALM        N/A
YUMA CO          N/A     37  31  79 CALM        N/A
$$



USA.gov is the U.S. government's official web portal to all federal, state and local government web resources and services.